Hourly Data Report for October 25, 2013

All times are specified in Local Standard Time (LST). Add 1 hour to adjust for Daylight Saving Time where and when it is observed.

HALL BEACH A
NUNAVUT

68°46'33.000" N
81°14'33.000" W
9.10 m
2402354
71293
YUX

Download Data

Hourly Data (October 2013)
Hourly Data Report for October 25, 2013
Temp Definition
°C
Dew Point Temp Definition
°C
Rel Hum Definition
%
Wind Dir Definition
10's deg

Wind Spd Definition
km/h
Visibility Definition
km
Stn Press Definition
kPa
Hmdx Definition


Wind Chill Definition


Weather Definition


TIME
00:00 Legend Double Dagger -8.8 -10.0 91 27 8 16.1 100.56   -13 LegendNANA
01:00 Legend Double Dagger -8.4 -9.8 90 29 11 16.1 100.53   -14 LegendNANA
02:00 Legend Double Dagger -8.3 -9.8 89 29 13 16.1 100.48   -14 LegendNANA
03:00 Legend Double Dagger -8.5 -9.9 90 31 11 16.1 100.46   -14 LegendNANA
04:00 Legend Double Dagger -8.7 -10.1 90 30 13 16.1 100.46   -15 LegendNANA
05:00 Legend Double Dagger -8.6 -10.1 89 31 13 16.1 100.43   -15 LegendNANA
06:00 Legend Double Dagger -8.8 -10.3 89 32 11 16.1 100.42   -14 LegendNANA
07:00 Legend Double Dagger -9.3 -10.5 91 33 5 16.1 100.40   -12 LegendNANA
08:00 Legend Double Dagger -10.1 -11.3 91 32 5 16.1 100.36   -13 LegendNANA
09:00 Legend Double Dagger -11.5 -12.4 93 26 4 16.1 100.36   -14 LegendNANA
10:00 Legend Double Dagger -12.0 -12.9 93 20 4 16.1 100.33   -15 LegendNANA
11:00 Legend Double Dagger -11.2 -12.2 93 14 4 16.1 100.30   -14 LegendNANA
12:00 Legend Double Dagger -9.6 -11.2 89   0 16.1 100.30     LegendNANA
13:00 Legend Double Dagger -7.7 -10.1 83 15 5 16.1 100.25   -10 LegendNANA
14:00 Legend Double Dagger -7.4 -9.1 88 24 5 16.1 100.25   -10 LegendNANA
15:00 Legend Double Dagger -9.4 -10.8 90   0 16.1 100.25     LegendNANA
16:00 Legend Double Dagger -9.7 -10.8 92 26 5 16.1 100.24   -13 LegendNANA
17:00 Legend Double Dagger -10.2 -11.4 91 32 9 4.8 100.23   -15 LegendNANA
18:00 Legend Double Dagger -12.2 -13.3 92 33 11 16.1 100.23   -18 LegendNANA
19:00 Legend Double Dagger -11.1 -12.2 92 31 13 6.4 100.21   -18 LegendNANA
20:00 Legend Double Dagger -11.0 -12.1 92 31 9 16.1 100.18   -16 LegendNANA
21:00 Legend Double Dagger -11.3 -12.4 92 33 13 16.1 100.17   -18 LegendNANA
22:00 Legend Double Dagger -12.1 -13.3 91 32 13 14.5 100.14   -19 LegendNANA
23:00 Legend Double Dagger -10.4 -11.3 93 34 15 14.5 100.11   -17 LegendNANA

Notes on Data Quality.

Legend

  • E = Estimated
  • M = Missing
  • NA = Not Available
  • ‡ = Partner data that is not subject to review by the National Climate Archives
Date modified: